Theta_e
288 281 276 278 280 280 279 278 277 280 283 281 280 281 285 287 285 284 285 286 285 287 290 292 292 293 293 291 292 291 291 291 289 287 286 286 286 286 286 287 288 289 289 290
282 278 283 285 284 282 281 278 276 281 282 280 278 279 284 284 283 282 283 283 285 286 288 289 290 291 291 291 291 291 291 290 289 288 287 286 285 285 286 287 287 287 289 290
281 282 286 284 281 280 279 277 276 277 279 278 276 275 279 281 283 284 284 283 283 286 287 287 289 288 288 288 288 289 290 290 289 289 287 286 286 285 284 285 285 287 288 289
281 284 283 281 280 279 277 280 280 278 272 268 275 269 276 277 280 282 283 282 282 284 286 287 287 287 287 288 288 289 289 289 289 288 287 285 284 283 283 283 284 286 287 287
279 281 280 279 280 281 278 280 278 276 267 268 270 265 274 277 278 280 282 282 282 283 285 286 287 288 288 288 287 287 288 288 289 287 287 285 284 283 283 282 284 285 286 286
280 283 281 280 281 281 281 277 275 273 265 264 263 266 273 277 278 278 280 282 283 283 284 285 286 287 286 286 286 286 287 288 288 287 286 285 283 282 281 282 282 283 283 284
278 279 281 282 279 281 278 268 264 265 264 266 260 266 274 279 280 279 281 282 282 283 283 284 284 285 285 284 284 285 285 285 286 286 284 283 282 281 281 282 282 282 282 282
267 270 274 282 279 276 275 269 266 260 263 266 261 266 276 279 279 280 281 282 282 282 282 283 284 284 283 284 284 284 284 283 284 283 282 281 282 282 282 282 282 281 281 283
268 271 279 281 281 278 274 266 273 262 255 260 266 271 278 279 276 279 280 280 282 282 282 283 283 283 283 283 283 284 283 283 283 282 281 280 281 282 281 281 281 281 282 284
275 268 273 279 280 278 273 275 267 264 261 257 263 260 272 276 275 276 277 277 279 281 281 282 283 283 283 283 283 282 282 282 282 281 280 281 282 281 281 281 281 281 282 284
274 269 270 276 268 268 269 267 267 267 268 262 259 267 272 274 276 274 275 278 275 278 280 281 282 283 282 282 282 282 281 281 280 280 280 281 281 281 281 281 281 282 283 285
278 274 265 271 275 276 275 270 272 267 263 263 265 269 277 274 267 264 273 274 274 274 278 278 280 280 281 281 281 281 280 280 280 279 281 281 281 281 280 280 281 282 284 285
280 268 262 268 271 274 271 275 273 269 271 264 264 271 271 267 269 269 271 275 273 272 276 278 277 279 280 280 281 280 279 280 280 279 280 280 280 279 279 280 281 282 282 283
283 276 269 266 265 267 268 272 275 271 261 270 272 275 276 280 281 282 284 281 278 275 275 277 278 279 281 279 278 279 278 279 279 279 279 279 279 279 278 280 280 283 281 283
279 270 273 273 271 268 272 269 271 271 273 268 275 274 270 278 282 284 279 278 278 280 281 279 278 280 280 280 280 278 276 276 276 276 276 276 277 277 279 279 280 283 281 282
279 270 268 271 275 276 274 276 276 274 274 273 275 274 281 283 283 282 282 281 278 280 282 284 284 282 281 281 280 277 274 274 273 274 274 270 271 273 280 278 280 282 281 281
277 271 266 265 269 268 266 271 274 275 268 274 271 276 280 279 280 282 275 279 280 282 283 284 285 285 283 278 276 274 274 269 271 272 270 270 269 274 280 280 281 281 282 281
278 275 273 268 266 258 271 274 274 271 274 274 277 277 277 277 279 281 280 281 281 282 283 284 285 284 280 271 269 266 268 269 269 269 269 268 268 273 280 280 281 281 281 281
280 277 272 266 256 268 274 275 274 272 272 276 274 276 277 279 280 278 281 280 280 281 283 284 286 284 275 273 270 268 263 266 267 268 268 268 269 274 278 280 280 281 280 280
274 278 274 261 262 257 270 273 277 278 270 276 276 276 276 278 274 277 282 283 284 284 282 283 283 279 277 277 273 271 267 266 269 269 270 269 270 276 279 279 277 280 280 280
270 271 270 270 269 268 273 275 277 265 270 276 276 276 277 277 279 281 283 283 284 284 284 286 281 279 279 277 275 275 272 270 274 273 271 270 271 273 276 274 273 279 279 279
265 259 261 259 262 264 274 274 268 274 276 276 276 276 276 278 279 280 281 282 283 282 283 284 284 281 280 278 276 276 274 275 273 273 273 273 272 274 275 273 273 280 277 271
265 269 263 266 265 274 277 275 277 277 276 276 276 277 278 277 277 279 281 282 281 281 283 284 284 282 281 278 277 277 276 274 272 271 272 271 272 274 276 274 275 276 272 270
269 272 267 267 270 273 276 277 277 277 277 278 279 279 278 277 278 278 279 281 280 280 281 284 283 284 284 279 276 278 273 274 272 271 270 271 272 272 272 276 275 275 273 271
271 268 266 268 272 273 274 276 278 278 279 279 279 279 278 279 278 278 278 279 279 280 281 283 284 285 285 287 281 279 276 273 273 272 271 271 272 273 273 274 274 275 273 275
271 271 268 268 274 273 274 277 278 277 277 278 278 279 279 279 279 279 278 279 279 279 281 282 284 284 285 284 284 281 276 275 274 272 271 272 272 272 273 273 272 280 280 281
Wind_Speed
5 8 2 2 2 1 2 2 2 3 4 4 4 11 19 10 7 9 11 11 10 9 6 6 7 7 7 6 7 7 7 6 3 2 1 1 3 1 2 2 3 4 4 4
7 3 2 0 4 3 4 2 4 5 3 3 5 17 19 11 6 4 7 8 8 5 5 5 7 6 6 7 7 7 7 6 5 3 2 2 2 2 2 2 3 4 4 4
6 1 3 3 5 4 2 2 2 3 8 1 8 9 6 3 3 4 4 4 1 7 8 6 7 6 6 7 7 7 7 7 6 6 2 1 1 1 1 2 2 3 5 5
5 3 3 4 4 3 1 3 2 3 5 3 5 7 9 4 7 4 5 5 3 5 4 5 6 6 7 7 5 5 6 6 5 6 4 5 3 2 2 1 2 4 5 5
4 4 5 5 2 2 1 3 2 3 4 4 6 5 11 4 5 6 6 4 3 4 5 7 7 8 6 6 6 5 5 6 5 6 5 4 3 3 2 2 4 5 5 5
1 2 3 1 2 3 2 3 5 4 4 4 4 4 9 4 4 4 3 5 6 6 6 6 6 5 5 4 4 4 4 4 4 6 6 6 6 4 3 3 3 4 3 4
6 2 3 4 2 3 6 7 5 8 6 6 2 1 13 7 6 5 6 9 9 7 7 6 7 7 7 7 6 4 5 5 6 6 6 6 6 5 6 5 3 4 3 3
4 8 3 5 3 2 3 6 7 6 2 6 2 7 10 5 5 6 7 7 6 8 7 9 10 8 8 8 7 6 6 5 5 6 6 5 5 3 3 4 4 4 4 4
4 5 1 4 3 3 2 3 2 7 2 4 4 10 12 3 7 7 8 6 10 10 10 11 9 8 8 8 8 8 6 6 6 7 5 5 4 5 4 5 4 4 5 5
3 4 2 4 2 5 5 2 5 5 2 6 7 8 9 9 8 7 7 8 9 7 8 8 8 8 6 7 6 6 6 7 6 6 5 5 5 4 3 3 5 5 5 5
4 5 6 2 3 7 2 2 4 4 5 6 3 9 9 9 8 7 8 9 8 9 10 9 8 7 6 6 6 7 7 7 6 6 5 6 5 4 3 3 4 5 4 6
1 4 3 10 1 3 4 6 5 6 7 3 3 14 7 8 2 2 10 9 6 7 9 8 8 7 7 7 7 8 7 7 7 6 6 6 4 3 2 3 5 5 6 7
4 2 5 10 5 4 3 4 4 3 2 7 3 11 2 4 6 5 9 8 8 7 9 11 9 11 8 8 8 8 8 8 7 6 6 5 5 3 3 4 5 4 5 6
4 4 9 9 8 4 3 4 5 6 4 8 21 31 10 18 19 15 16 15 11 9 11 11 11 14 13 9 8 8 8 7 7 7 6 6 5 5 4 4 5 4 5 6
5 6 6 9 9 6 12 8 10 14 14 12 33 27 5 15 21 23 10 11 12 16 14 13 14 12 12 11 11 11 8 7 7 7 6 6 4 4 5 4 5 5 5 5
2 4 2 9 10 15 22 17 20 20 20 19 26 35 19 21 21 18 16 14 14 18 19 19 14 13 12 13 12 9 8 9 7 7 8 5 5 5 4 5 5 5 5 5
5 2 3 8 3 6 11 17 19 12 5 12 15 23 12 17 20 19 8 12 16 16 18 19 17 15 12 10 9 10 8 6 8 8 6 6 6 6 5 6 5 5 4 3
8 4 3 7 5 5 9 2 5 9 6 10 16 16 13 12 14 15 14 15 16 17 18 18 15 14 11 5 6 4 6 7 8 8 7 7 6 6 6 7 6 6 3 3
13 11 5 4 5 11 11 7 5 6 5 3 4 10 16 22 19 6 9 10 12 15 17 16 16 14 7 8 6 6 4 6 7 9 8 8 8 7 7 9 8 6 3 3
2 11 7 2 4 8 5 4 5 13 20 3 12 23 26 18 17 10 16 20 23 20 13 19 18 8 7 7 7 7 6 7 9 9 10 8 9 9 11 10 6 5 3 4
3 2 15 12 10 10 1 6 4 2 11 23 24 23 21 19 16 24 21 19 18 16 16 16 11 9 7 4 7 7 7 11 9 6 7 7 9 10 8 6 4 4 3 6
7 5 4 2 5 17 7 14 4 17 25 25 23 21 22 22 23 23 24 17 14 15 17 14 12 10 7 5 5 7 10 6 7 7 7 8 9 8 7 7 4 7 4 4
4 9 7 11 9 6 19 20 20 18 19 25 25 25 22 23 23 23 20 17 15 14 14 10 5 11 10 7 9 9 6 7 7 6 7 7 6 8 7 8 7 5 4 3
5 4 4 4 1 15 22 22 19 20 19 21 22 23 24 25 26 26 22 21 16 11 12 12 5 13 15 8 10 12 5 6 7 7 7 6 7 7 5 5 5 5 4 4
6 3 5 12 15 17 14 16 18 22 22 24 24 23 26 25 27 26 24 21 18 15 12 10 10 11 14 16 10 8 7 7 6 6 6 7 6 8 7 6 6 6 4 6
6 9 6 15 19 17 19 21 28 25 24 25 23 26 27 21 22 25 22 20 18 15 14 13 12 13 17 15 15 8 7 10 8 7 6 6 6 6 5 6 4 11 11 12
Wind_Direction
10 65 76 326 7 28 82 73 304 290 23 338 265 283 283 290 265 262 253 250 241 231 231 171 154 142 133 134 148 162 165 187 143 132 170 238 237 231 273 272 289 308 309 318
26 84 317 291 34 60 62 72 296 292 43 5 339 291 281 285 253 246 281 278 236 185 146 153 138 136 159 159 164 167 191 185 191 174 187 174 176 216 240 263 289 305 308 318
114 127 18 74 37 47 56 139 338 263 329 15 331 292 314 323 304 319 348 317 209 192 165 150 145 150 139 164 180 189 203 209 209 196 136 107 51 8 317 293 301 316 331 320
79 5 63 53 76 68 358 5 34 11 40 274 21 281 302 328 301 285 323 7 75 114 104 127 141 153 174 199 195 217 227 230 227 190 180 184 196 237 236 245 278 307 310 305
266 18 35 57 46 66 151 36 64 88 91 47 349 69 271 325 294 259 242 245 219 197 172 169 176 182 198 190 203 222 245 249 236 194 189 187 215 230 269 291 293 296 300 291
77 44 53 72 69 56 79 55 41 63 94 24 269 109 286 257 225 297 232 225 216 205 204 203 202 186 209 200 197 207 228 248 211 189 190 193 213 239 263 269 274 274 270 272
350 17 355 31 35 39 60 48 339 355 10 226 300 33 245 259 270 246 237 219 209 204 200 203 205 208 209 202 215 219 209 235 217 201 193 196 212 219 238 262 273 287 281 269
103 333 31 353 62 180 54 132 149 225 273 273 356 245 252 223 287 271 269 228 204 200 205 210 214 212 217 231 233 230 225 232 203 193 201 200 210 216 235 246 254 255 255 257
100 289 10 45 20 73 278 39 168 98 78 42 256 289 295 308 279 255 255 209 210 214 212 216 219 222 235 243 238 227 224 226 211 205 202 209 211 218 240 268 270 266 266 272
170 351 321 301 91 27 131 145 34 6 337 299 293 279 244 299 287 277 271 238 244 247 248 244 239 240 249 252 246 232 223 222 213 205 202 206 209 217 242 271 276 279 276 276
121 99 288 19 186 182 33 359 38 124 153 198 280 261 216 236 252 265 269 256 252 250 239 242 243 240 253 270 248 232 218 216 210 200 200 204 211 220 248 266 277 280 295 299
92 132 258 228 131 165 169 190 157 130 269 233 166 269 239 243 264 274 285 273 289 272 272 266 256 272 279 263 252 235 219 206 209 201 196 205 207 220 270 290 288 292 294 292
171 336 356 338 11 359 210 202 162 113 85 198 170 258 285 286 328 269 272 300 279 281 279 272 274 261 261 255 238 231 221 204 201 191 192 200 209 218 255 272 285 290 284 284
152 187 180 208 205 147 205 200 213 157 154 270 240 272 306 293 299 304 304 297 287 273 258 258 259 253 255 250 231 230 229 197 187 189 190 200 201 206 226 251 269 270 278 283
144 222 228 243 245 213 248 214 221 222 239 223 275 267 277 277 292 292 275 283 284 276 270 254 251 249 245 243 234 221 215 193 169 179 189 201 187 190 225 257 268 273 279 276
178 270 108 275 233 245 262 252 244 236 244 253 263 275 264 281 283 288 284 281 270 272 273 274 269 252 248 249 249 221 199 197 161 179 201 181 177 195 211 252 259 261 271 280
171 161 40 266 345 307 285 230 236 231 181 215 252 263 292 280 285 301 300 280 277 282 275 276 268 260 250 238 214 214 200 158 178 185 181 184 184 196 202 232 244 252 258 272
226 188 198 280 8 271 251 219 190 193 217 228 264 286 331 319 311 301 269 286 300 300 295 287 276 269 255 227 223 151 160 176 176 193 188 178 186 202 200 225 240 252 240 278
216 224 249 245 199 294 292 301 348 340 296 250 347 336 334 330 313 308 359 339 315 302 304 296 283 260 247 219 196 160 155 161 174 199 198 190 183 199 206 229 236 244 228 262
161 217 208 102 212 239 227 122 340 347 303 18 341 330 324 333 305 316 333 318 321 323 319 326 309 265 241 208 159 153 174 179 206 200 203 183 184 199 213 224 215 223 210 256
115 204 221 235 249 268 201 16 38 45 306 326 317 310 307 294 272 288 289 285 288 296 309 327 313 286 267 195 146 185 173 209 212 177 175 180 189 202 202 208 202 206 228 260
170 161 195 32 255 261 13 344 351 298 304 302 299 294 290 288 288 287 289 280 280 294 306 324 326 313 294 226 188 208 211 192 178 172 181 188 191 199 195 198 210 229 222 240
280 194 198 187 218 302 315 292 294 290 287 288 290 290 288 286 282 284 279 282 274 271 281 291 318 307 296 258 215 227 230 169 164 172 187 183 177 195 189 185 202 209 205 201
268 216 230 343 205 287 287 286 280 280 275 278 281 284 288 287 287 281 282 277 267 267 270 274 284 291 284 245 229 232 175 173 160 188 189 173 180 189 188 186 191 196 195 198
202 151 214 264 285 284 274 281 289 300 297 294 288 282 283 284 279 279 277 266 272 266 268 257 265 265 270 284 254 220 202 171 187 184 179 177 182 188 186 204 192 203 210 184
188 241 240 270 283 282 287 295 298 301 296 293 292 295 297 282 283 281 267 265 262 263 271 254 248 252 266 261 266 248 190 188 193 182 177 182 179 186 184 189 214 230 225 216